Eastsound, WA

11:37 AM PDT on April 28, 2017 (GMT -0700)
Orcas Island

Weather History for KORS - January, 2013

Change the Weather History Date:

Tuesday, January 1, 2013

  Actual Average (KFHR) Record (KFHR)
Temperature  
Mean Temperature 36 °F -  
Max Temperature 39 °F 43 °F 53 °F (2006)
Min Temperature 32 °F 35 °F 25 °F (2011)
Degree Days  
Heating Degree Days 30    
Moisture  
Dew Point 33 °F    
Average Humidity 89    
Maximum Humidity 100    
Minimum Humidity 70    
Precipitation  
Precipitation 0.00 in - - ()
Sea Level Pressure  
Sea Level Pressure 30.44 in    
Wind  
Wind Speed 2 mph (NNE)    
Max Wind Speed 8 mph    
Max Gust Speed -    
Visibility 8 miles    
Events      
Averages and records for this station are not official NWS values.
T = Trace of Precipitation, MM = Missing Value Source: NWS Daily Summary

Daily Weather History Graph

Daily Weather History Graph

Search for Another Location

Airport or City:

Trip Planner

Search our weather history database for the weather conditions in past years. The results will help you decide how hot, cold, wet, or windy it might be!

Date:

Astronomy

Jan. 01, 2013 Rise Set
Actual Time 8:04 AM PST 4:26 PM PST
Civil Twilight 7:27 AM PST 5:03 PM PST
Nautical Twilight 6:47 AM PST 5:43 PM PST
Astronomical Twilight 6:09 AM PST 6:21 PM PST
Moon 9:28 PM PST (1/1) 9:56 AM PST (1/1)
Length of Visible Light 9h 35m
Length of Day
8h 22m
Waning Gibbous, 82% of the Moon is Illuminated
Jan 1
Waning Gibbous
Jan 4
Last Quarter
Jan 11
New
Jan 18
First Quarter
Jan 26
Full

Hourly Weather History & Observations

Time (PST) Temp. Windchill Dew Point Humidity Pressure Visibility Wind Dir Wind Speed Gust Speed Precip Events Conditions
12:15 AM 37.4 °F - 37.4 °F 100% 30.46 in 8.0 mi Calm Calm - N/A   Overcast
12:35 AM 37.4 °F - 37.4 °F 100% 30.46 in 7.0 mi Calm Calm - N/A   Overcast
12:55 AM 37.4 °F - 37.4 °F 100% 30.46 in 8.0 mi Calm Calm - N/A   Overcast
1:15 AM 37.4 °F - 35.6 °F 93% 30.46 in 5.0 mi Calm Calm - N/A   Overcast
1:35 AM 35.6 °F - 35.6 °F 100% 30.46 in 5.0 mi Calm Calm - N/A   Overcast
1:55 AM 35.6 °F - 35.6 °F 100% 30.47 in 4.0 mi Calm Calm - N/A   Mostly Cloudy
2:15 AM 35.6 °F - 35.6 °F 100% 30.47 in 3.0 mi Calm Calm - N/A   Partly Cloudy
2:35 AM 33.8 °F - 33.8 °F 100% 30.48 in 3.0 mi Calm Calm - N/A   Clear
2:55 AM 33.8 °F - 33.8 °F 100% 30.47 in 3.0 mi Calm Calm - N/A   Clear
3:15 AM 32.0 °F - 32.0 °F 100% 30.46 in 3.0 mi Calm Calm - N/A   Clear
3:35 AM 32.0 °F - 32.0 °F 100% 30.46 in 3.0 mi Calm Calm - N/A   Clear
3:55 AM 32.0 °F - 32.0 °F 100% 30.45 in 3.0 mi Calm Calm - N/A   Partly Cloudy
4:15 AM 32.0 °F - 32.0 °F 100% 30.45 in 3.0 mi Calm Calm - N/A   Clear
4:35 AM 32.0 °F - 32.0 °F 100% 30.45 in 2.5 mi Calm Calm - N/A   Scattered Clouds
4:55 AM 32.0 °F - 32.0 °F 100% 30.45 in 1.5 mi Calm Calm - N/A   Mostly Cloudy
5:15 AM 32.0 °F - 32.0 °F 100% 30.44 in 3.0 mi Calm Calm - N/A   Clear
5:35 AM 32.0 °F - 32.0 °F 100% 30.45 in 3.0 mi Calm Calm - N/A   Scattered Clouds
5:55 AM 32.0 °F - 32.0 °F 100% 30.45 in 4.0 mi Calm Calm - N/A   Overcast
6:15 AM 32.0 °F - 32.0 °F 100% 30.46 in 4.0 mi Calm Calm - N/A   Overcast
6:35 AM 32.0 °F - 32.0 °F 100% 30.46 in 5.0 mi Calm Calm - N/A   Mostly Cloudy
6:55 AM 32.0 °F - 32.0 °F 100% 30.46 in 5.0 mi Calm Calm - N/A   Scattered Clouds
7:15 AM 32.0 °F - 32.0 °F 100% 30.46 in 9.0 mi Calm Calm - N/A   Mostly Cloudy
7:35 AM 33.8 °F - 33.8 °F 100% 30.47 in 8.0 mi Calm Calm - N/A   Overcast
7:55 AM 35.6 °F 32.8 °F 35.6 °F 100% 30.47 in 9.0 mi East 3.5 mph - N/A   Overcast
8:15 AM 35.6 °F - 35.6 °F 100% 30.48 in 10.0 mi Calm Calm - N/A   Overcast
8:35 AM 35.6 °F 31.7 °F 33.8 °F 93% 30.48 in 10.0 mi NE 4.6 mph - N/A   Overcast
8:55 AM 35.6 °F - 32.0 °F 87% 30.48 in 9.0 mi Calm Calm - N/A   Scattered Clouds
9:15 AM 35.6 °F - 32.0 °F 87% 30.49 in 10.0 mi Calm Calm - N/A   Partly Cloudy
9:35 AM 35.6 °F - 32.0 °F 87% 30.50 in 10.0 mi Calm Calm - N/A   Mostly Cloudy
9:55 AM 35.6 °F 32.8 °F 32.0 °F 87% 30.51 in 10.0 mi NE 3.5 mph - N/A   Scattered Clouds
10:15 AM 35.6 °F 31.7 °F 32.0 °F 87% 30.51 in 10.0 mi NE 4.6 mph - N/A   Clear
10:35 AM 35.6 °F 31.7 °F 32.0 °F 87% 30.50 in 10.0 mi NE 4.6 mph - N/A   Clear
10:55 AM 35.6 °F 31.7 °F 32.0 °F 87% 30.50 in 10.0 mi ENE 4.6 mph - N/A   Clear
11:15 AM 35.6 °F 29.2 °F 30.2 °F 81% 30.49 in 10.0 mi NE 8.1 mph - N/A   Clear
11:35 AM 35.6 °F 31.7 °F 30.2 °F 81% 30.48 in 10.0 mi ENE 4.6 mph - N/A   Clear
11:55 AM 35.6 °F 30.7 °F 30.2 °F 81% 30.48 in 10.0 mi NNE 5.8 mph - N/A   Clear
12:15 PM 37.4 °F 32.8 °F 30.2 °F 75% 30.48 in 10.0 mi NE 5.8 mph - N/A   Clear
12:35 PM 37.4 °F 33.8 °F 30.2 °F 75% 30.47 in 10.0 mi NE 4.6 mph - N/A   Clear
12:55 PM 37.4 °F 32.8 °F 30.2 °F 75% 30.46 in 10.0 mi NNE 5.8 mph - N/A   Clear
1:15 PM 37.4 °F 32.8 °F 32.0 °F 81% 30.46 in 10.0 mi NE 5.8 mph - N/A   Clear
1:35 PM 37.4 °F 32.1 °F 32.0 °F 81% 30.46 in 10.0 mi North 6.9 mph - N/A   Clear
1:55 PM 37.4 °F 33.8 °F 32.0 °F 81% 30.45 in 10.0 mi North 4.6 mph - N/A   Clear
2:15 PM 37.4 °F 33.8 °F 32.0 °F 81% 30.45 in 10.0 mi North 4.6 mph - N/A   Clear
2:35 PM 37.4 °F 32.8 °F 33.8 °F 87% 30.45 in 10.0 mi North 5.8 mph - N/A   Partly Cloudy
2:55 PM 37.4 °F 31.4 °F 33.8 °F 87% 30.45 in 10.0 mi North 8.1 mph - N/A   Partly Cloudy
3:15 PM 37.4 °F 32.8 °F 32.0 °F 81% 30.45 in 10.0 mi North 5.8 mph - N/A   Partly Cloudy
3:35 PM 37.4 °F 34.9 °F 32.0 °F 81% 30.45 in 10.0 mi North 3.5 mph - N/A   Clear
3:55 PM 37.4 °F 34.9 °F 32.0 °F 81% 30.44 in 10.0 mi North 3.5 mph - N/A   Clear
4:15 PM 37.4 °F 33.8 °F 33.8 °F 87% 30.45 in 10.0 mi North 4.6 mph - N/A   Clear
4:35 PM 37.4 °F 33.8 °F 33.8 °F 87% 30.44 in 10.0 mi North 4.6 mph - N/A   Clear
4:55 PM 37.4 °F 33.8 °F 33.8 °F 87% 30.43 in 10.0 mi North 4.6 mph - N/A   Partly Cloudy
5:15 PM 37.4 °F 32.8 °F 35.6 °F 93% 30.42 in 10.0 mi North 5.8 mph - N/A   Clear
5:35 PM 37.4 °F 33.8 °F 33.8 °F 87% 30.41 in 10.0 mi North 4.6 mph - N/A   Partly Cloudy
5:55 PM 37.4 °F 32.8 °F 35.6 °F 93% 30.41 in 10.0 mi North 5.8 mph - N/A   Mostly Cloudy
6:15 PM 37.4 °F 33.8 °F 33.8 °F 87% 30.41 in 10.0 mi North 4.6 mph - N/A   Scattered Clouds
6:35 PM 37.4 °F 34.9 °F 35.6 °F 93% 30.40 in 10.0 mi North 3.5 mph - N/A   Partly Cloudy
6:55 PM 37.4 °F - 35.6 °F 93% 30.39 in 10.0 mi Calm Calm - N/A   Clear
7:15 PM 39.2 °F - 32.0 °F 75% 30.39 in 10.0 mi Calm Calm - N/A   Clear
7:35 PM 37.4 °F 34.9 °F 32.0 °F 81% 30.39 in 10.0 mi NE 3.5 mph - N/A   Clear
7:55 PM 37.4 °F - 32.0 °F 81% 30.39 in 10.0 mi Calm Calm - N/A   Clear
8:15 PM 37.4 °F 33.8 °F 32.0 °F 81% 30.39 in 10.0 mi NNE 4.6 mph - N/A   Clear
8:35 PM 37.4 °F 33.8 °F 30.2 °F 75% 30.38 in 10.0 mi NE 4.6 mph - N/A   Clear
8:55 PM 37.4 °F 32.8 °F 32.0 °F 81% 30.37 in 10.0 mi NNE 5.8 mph - N/A   Clear
9:15 PM 37.4 °F - 32.0 °F 81% 30.37 in 10.0 mi Calm Calm - N/A   Clear
9:55 PM 37.4 °F 32.8 °F 30.2 °F 75% 30.38 in 10.0 mi NNE 5.8 mph - N/A   Clear
10:15 PM 37.4 °F - 28.4 °F 70% 30.37 in 10.0 mi Calm Calm - N/A   Clear
10:35 PM 35.6 °F 31.7 °F 30.2 °F 81% 30.37 in 10.0 mi NNE 4.6 mph - N/A   Clear
10:55 PM 35.6 °F - 30.2 °F 81% 30.37 in 10.0 mi Calm Calm - N/A   Clear
11:15 PM 37.4 °F - 30.2 °F 75% 30.37 in 10.0 mi Calm Calm - N/A   Clear
11:35 PM 35.6 °F - 30.2 °F 81% 30.37 in 10.0 mi Calm Calm - N/A   Clear